Weather History for Vancouver, WA

Change the Weather History Date:

Monday, May 12, 2014

  Actual Average Record
Temperature  
Mean Temperature 61 °F 57 °F  
Max Temperature 78 °F 68 °F 89 °F (1912)
Min Temperature 43 °F 47 °F 36 °F (2011)
Degree Days  
Heating Degree Days 4    
Month to date heating degree days 98  
Since 1 July heating degree days 4444  
Cooling Degree Days 0    
Month to date cooling degree days 3  
Year to date cooling degree days 3  
Growing Degree Days 10 (Base 50)    
Moisture  
Dew Point 37 °F    
Average Humidity 54    
Maximum Humidity 93    
Minimum Humidity 14    
Precipitation  
Precipitation 0.00 in 0.09 in 0.91 in (1987)
Month to date precipitation 1.42 1.13  
Year to date precipitation 17.97 17.24  
Sea Level Pressure  
Sea Level Pressure 30.28 in    
Wind  
Wind Speed 6 mph (ESE)    
Max Wind Speed 22 mph    
Max Gust Speed 29 mph    
Visibility 9 miles    
Events      
T = Trace of Precipitation, MM = Missing Value Source: NWS Daily Summary

Daily Weather History Graph

Daily Weather History Graph

Search for Another Location

Airport:

Trip Planner

Search our weather history database for the weather conditions in past years. The results will help you decide how hot, cold, wet, or windy it might be!

Date:

Astronomy

May. 12, 2014 Rise Set
Actual Time 5:43 AM PDT 8:31 PM PDT
Civil Twilight 5:08 AM PDT 9:06 PM PDT
Nautical Twilight 4:25 AM PDT 9:49 PM PDT
Astronomical Twilight 3:34 AM PDT 10:41 PM PDT
Moon 6:29 PM PDT (5/12) 4:33 AM PDT (5/12)
Length of Visible Light 15h 57m
Length of Day
14h 48m
Waxing Gibbous, 95% of the Moon is Illuminated
May 12
Waxing Gibbous
May 14
Full
May 21
Last Quarter
May 28
New
Jun 5
First Quarter

Hourly Weather History & Observations

Time (PDT) Temp. Dew Point Humidity Pressure Visibility Wind Dir Wind Speed Gust Speed Precip Events Conditions
12:53 AM 48.0 °F 44.1 °F 86% 30.31 in 10.0 mi Calm Calm - N/A   Clear
1:53 AM 48.0 °F 43.0 °F 83% 30.30 in 10.0 mi Calm Calm - N/A   Clear
2:53 AM 48.9 °F 45.0 °F 86% 30.30 in 10.0 mi Calm Calm - N/A   Clear
3:53 AM 46.9 °F 43.0 °F 86% 30.30 in 10.0 mi Calm Calm - N/A   Clear
4:53 AM 45.0 °F 42.1 °F 90% 30.30 in 10.0 mi Calm Calm - N/A   Clear
5:53 AM 44.1 °F 41.0 °F 89% 30.30 in 10.0 mi Calm Calm - N/A   Clear
6:07 AM 44.1 °F 41.0 °F 89% 30.30 in 1.5 mi Calm Calm - N/A   Clear
6:16 AM 45.0 °F 41.0 °F 86% 30.31 in 4.0 mi Calm Calm - N/A   Clear
7:53 AM 53.1 °F 46.0 °F 77% 30.33 in 10.0 mi Calm Calm - N/A   Clear
8:53 AM 55.0 °F 48.0 °F 77% 30.32 in 10.0 mi SW 3.5 mph - N/A   Clear
9:53 AM 57.9 °F 46.9 °F 67% 30.31 in 10.0 mi WSW 5.8 mph - N/A   Clear
10:53 AM 64.9 °F 50.0 °F 58% 30.30 in 10.0 mi Variable 5.8 mph - N/A   Clear
11:53 AM 73.0 °F 24.1 °F 16% 30.29 in 10.0 mi East 16.1 mph 28.8 mph N/A   Clear
12:53 PM 73.9 °F 25.0 °F 16% 30.28 in 10.0 mi East 16.1 mph 23.0 mph N/A   Clear
1:53 PM 75.9 °F 26.1 °F 16% 30.27 in 10.0 mi East 11.5 mph - N/A   Clear
2:53 PM 75.9 °F 24.1 °F 15% 30.27 in 10.0 mi East 15.0 mph 20.7 mph N/A   Clear
4:53 PM 77.0 °F 30.0 °F 18% 30.24 in 10.0 mi ESE 10.4 mph - N/A   Clear
5:53 PM 77.0 °F 28.0 °F 17% 30.22 in 10.0 mi East 11.5 mph - N/A   Clear
6:53 PM 77.0 °F 24.1 °F 14% 30.22 in 10.0 mi East 11.5 mph - N/A   Clear
8:53 PM 71.1 °F 26.1 °F 19% 30.23 in 10.0 mi East 5.8 mph - N/A   Clear
9:53 PM 61.0 °F 35.1 °F 38% 30.25 in 10.0 mi Calm Calm - N/A   Clear
11:53 PM 54.0 °F 37.0 °F 53% 30.26 in 10.0 mi Calm Calm - N/A   Clear